Location: Black Forest
(43.4794°N, 75.0081°W)
Time: 23:31:06
(UTC-05:00)

ISS - All Passes

Search period start: 21 February 2017 00:00
Search period end: 03 March 2017 00:00
Orbit: 399 x 408 km, 51.6° (Epoch: 22 February)

Date Brightness Start Highest point End Pass type
(mag) Time Alt. Az. Time Alt. Az. Time Alt. Az.
21 Feb - 08:19:55 10° SE 08:20:05 10° SE 08:20:15 10° SE daylight
21 Feb - 09:52:43 10° SW 09:56:01 78° SE 09:59:19 10° ENE daylight
21 Feb - 11:29:55 10° WNW 11:32:46 26° NNW 11:35:36 10° NE daylight
21 Feb - 13:07:29 10° NW 13:10:00 20° N 13:12:30 10° NE daylight
21 Feb - 14:43:54 10° NW 14:47:04 41° NNE 14:50:12 10° E daylight
21 Feb - 16:20:32 10° WNW 16:23:27 30° SW 16:26:21 10° SSE daylight
22 Feb - 09:00:27 10° SSW 09:03:34 41° SE 09:06:43 10° ENE daylight
22 Feb - 10:37:02 10° W 10:40:06 34° NNW 10:43:10 10° NE daylight
22 Feb - 12:14:45 10° NW 12:17:14 19° N 12:19:43 10° NE daylight
22 Feb - 13:51:29 10° NW 13:54:26 29° NNE 13:57:21 10° E daylight
22 Feb - 15:27:50 10° WNW 15:31:03 56° SW 15:34:15 10° SE daylight
23 Feb - 08:08:34 10° S 08:11:12 23° SE 08:13:52 10° E daylight
23 Feb - 09:44:15 10° WSW 09:47:29 51° NNW 09:50:43 10° NE daylight
23 Feb - 11:21:54 10° WNW 11:24:28 21° N 11:27:03 10° NE daylight
23 Feb - 12:59:00 10° NW 13:01:43 23° NNE 13:04:27 10° ENE daylight
23 Feb - 14:35:16 10° NW 14:38:34 80° NNE 14:41:51 10° ESE daylight
23 Feb - 16:12:53 10° W 16:14:37 14° SW 16:16:20 10° SSW daylight
24 Feb - 07:17:26 10° SSE 07:18:54 12° SE 07:20:22 10° ESE daylight
24 Feb - 08:51:37 10° WSW 08:54:55 87° NW 08:58:14 10° ENE daylight
24 Feb - 10:28:58 10° WNW 10:31:43 24° NNW 10:34:30 10° NE daylight
24 Feb - 12:06:25 10° NW 12:08:58 20° N 12:11:31 10° ENE daylight
24 Feb - 13:42:47 10° NW 13:45:59 47° NNE 13:49:11 10° ESE daylight
24 Feb - 15:19:33 10° W 15:22:18 25° SW 15:25:02 10° SSE daylight
25 Feb - 07:59:13 10° SW 08:02:26 51° SE 08:05:38 10° ENE daylight
25 Feb - 09:36:01 10° W 09:39:00 31° NNW 09:42:00 10° NE daylight
25 Feb - 11:13:42 10° NW 11:16:11 19° N 11:18:39 10° NE daylight
25 Feb - 12:50:19 10° NW 12:53:21 32° NNE 12:56:21 10° E daylight
25 Feb - 14:26:43 10° WNW 14:29:53 45° SW 14:33:02 10° SE daylight
26 Feb - 07:07:09 10° SSW 07:09:59 27° SE 07:12:51 10° ENE daylight
26 Feb - 08:43:09 10° W 08:46:20 44° NNW 08:49:32 10° NE daylight
26 Feb - 10:20:50 10° NW 10:23:23 20° N 10:25:55 10° NE daylight
26 Feb - 11:57:49 10° NW 12:00:36 25° NNE 12:03:24 10° ENE daylight
26 Feb - 13:34:05 10° WNW 13:37:23 85° SW 13:40:40 10° SE daylight
26 Feb - 15:12:20 10° WSW 15:13:21 11° SW 15:14:22 10° SSW daylight
27 Feb - 06:15:38 10° S 06:17:37 15° SE 06:19:37 10° E daylight
27 Feb - 07:50:26 10° WSW 07:53:43 73° NNW 07:57:01 10° NE daylight
27 Feb - 09:27:53 10° WNW 09:30:35 23° NNW 09:33:17 10° NE daylight
27 Feb - 11:05:13 10° NW 11:07:50 21° N 11:10:26 10° ENE daylight
27 Feb - 12:41:32 10° NW 12:44:48 55° NNE 12:48:02 10° ESE daylight
27 Feb - 14:18:30 10° W 14:21:02 20° SW 14:23:31 10° S daylight
28 Feb - 06:57:54 10° SW 07:01:09 62° SE 07:04:25 10° ENE daylight
28 Feb - 08:34:54 10° W 08:37:48 28° NNW 08:40:44 10° NE daylight
28 Feb - 10:12:31 10° NW 10:15:01 19° N 10:17:30 10° NE daylight
28 Feb - 11:49:02 10° NW 11:52:07 36° NNE 11:55:12 10° E daylight
28 Feb - 13:25:32 10° WNW 13:28:36 37° SW 13:31:39 10° SSE daylight
01 Mar - 06:05:40 10° SSW 06:08:39 33° SE 06:11:39 10° ENE visible
01 Mar - 07:41:57 10° W 07:45:05 39° NNW 07:48:13 10° NE daylight
01 Mar - 09:19:40 10° NW 09:22:10 20° N 09:24:41 10° NE daylight
01 Mar - 10:56:31 10° NW 10:59:23 27° NNE 11:02:15 10° ENE daylight
01 Mar - 12:32:48 10° WNW 12:36:05 71° SW 12:39:21 10° SE daylight
02 Mar - 05:13:53 10° S 05:16:14 18° SE 05:18:35 10° E visible
02 Mar - 06:49:08 10° WSW 06:52:24 62° NNW 06:55:41 10° NE daylight
02 Mar - 08:26:41 10° WNW 08:29:20 22° N 08:31:58 10° NE daylight
02 Mar - 10:03:55 10° NW 10:06:34 22° N 10:09:14 10° ENE daylight
02 Mar - 11:40:12 10° NW 11:43:29 66° NNE 11:46:45 10° ESE daylight
02 Mar - 13:17:24 10° W 13:19:37 17° SW 13:21:50 10° S daylight
